Time,TemperatureF,DewpointF,PressureIn,WindDirection,WindDirectionDegrees,WindSpeedMPH,WindSpeedGustMPH,Humidity,HourlyPrecipIn,Conditions,Clouds,dailyrainin,SoftwareType,DateUTC
2013-04-06 00:02:00,40.0,19.0,30.09,East,84,5.0,-999.0,43,-99.99,,,-99.99,,2013-04-06 05:02:00,
2013-04-06 00:13:00,40.0,19.0,30.09,East,84,5.0,-999.0,43,-99.99,,,-99.99,,2013-04-06 05:13:00,
2013-04-06 00:22:00,40.0,20.0,30.08,East,90,5.0,-999.0,45,-99.99,,,-99.99,,2013-04-06 05:22:00,
2013-04-06 00:32:00,39.0,21.0,30.07,East,94,5.0,-999.0,48,-99.99,,,-99.99,,2013-04-06 05:32:00,
2013-04-06 00:42:00,39.0,21.0,30.07,East,94,5.0,-999.0,48,-99.99,,,-99.99,,2013-04-06 05:42:00,
2013-04-06 00:52:00,39.0,22.0,30.07,East,82,5.0,-999.0,50,-99.99,,,-99.99,,2013-04-06 05:52:00,
2013-04-06 01:02:00,39.0,22.0,30.07,East,82,5.0,-999.0,50,-99.99,,,-99.99,,2013-04-06 06:02:00,
2013-04-06 01:12:00,39.0,22.0,30.07,East,82,5.0,-999.0,50,-99.99,,,-99.99,,2013-04-06 06:12:00,
2013-04-06 01:22:00,38.0,21.0,30.07,ESE,102,7.0,-999.0,49,-99.99,,,-99.99,,2013-04-06 06:22:00,
2013-04-06 01:32:00,38.0,22.0,30.06,East,90,8.0,-999.0,51,-99.99,,,-99.99,,2013-04-06 06:32:00,
2013-04-06 01:42:00,38.0,22.0,30.06,East,90,8.0,-999.0,51,-99.99,,,-99.99,,2013-04-06 06:42:00,
2013-04-06 01:52:00,38.0,23.0,30.06,East,85,4.0,-999.0,54,-99.99,,,-99.99,,2013-04-06 06:52:00,
2013-04-06 02:03:00,37.0,24.0,30.04,East,88,5.0,-999.0,58,-99.99,,,-99.99,,2013-04-06 07:03:00,
2013-04-06 02:12:00,37.0,24.0,30.04,East,88,5.0,-999.0,58,-99.99,,,-99.99,,2013-04-06 07:12:00,
2013-04-06 02:22:00,37.0,24.0,30.06,East,84,4.0,-999.0,58,-99.99,,,-99.99,,2013-04-06 07:22:00,
2013-04-06 02:33:00,37.0,24.0,30.05,East,80,9.0,-999.0,58,-99.99,,,-99.99,,2013-04-06 07:33:00,
2013-04-06 02:43:00,37.0,24.0,30.05,East,80,9.0,-999.0,58,-99.99,,,-99.99,,2013-04-06 07:43:00,
2013-04-06 02:53:00,37.0,25.0,30.05,East,84,6.0,-999.0,61,-99.99,,,-99.99,,2013-04-06 07:53:00,
2013-04-06 03:02:00,36.0,24.0,30.04,East,90,7.0,-999.0,62,-99.99,,,-99.99,,2013-04-06 08:02:00,
2013-04-06 03:12:00,36.0,24.0,30.04,East,90,7.0,-999.0,62,-99.99,,,-99.99,,2013-04-06 08:12:00,
2013-04-06 03:22:00,36.0,25.0,30.04,ENE,76,3.0,-999.0,63,-99.99,,,-99.99,,2013-04-06 08:22:00,
2013-04-06 03:32:00,36.0,25.0,30.03,East,89,3.0,-999.0,64,-99.99,,,-99.99,,2013-04-06 08:32:00,
2013-04-06 03:42:00,36.0,25.0,30.03,East,89,3.0,-999.0,64,-99.99,,,-99.99,,2013-04-06 08:42:00,
2013-04-06 03:52:00,36.0,25.0,30.03,East,86,3.0,-999.0,65,-99.99,,,-99.99,,2013-04-06 08:52:00,
2013-04-06 04:02:00,36.0,26.0,30.03,East,84,1.0,-999.0,66,-99.99,,,-99.99,,2013-04-06 09:02:00,
2013-04-06 04:12:00,36.0,26.0,30.03,East,84,1.0,-999.0,66,-99.99,,,-99.99,,2013-04-06 09:12:00,
2013-04-06 04:22:00,36.0,26.0,30.02,East,86,2.0,-999.0,67,-99.99,,,-99.99,,2013-04-06 09:22:00,
2013-04-06 04:32:00,35.0,26.0,30.01,East,85,5.0,-999.0,68,-99.99,,,-99.99,,2013-04-06 09:32:00,
2013-04-06 04:43:00,35.0,26.0,30.01,East,85,5.0,-999.0,68,-99.99,,,-99.99,,2013-04-06 09:43:00,
2013-04-06 04:53:00,35.0,26.0,30.00,East,99,5.0,-999.0,70,-99.99,,,-99.99,,2013-04-06 09:53:00,
2013-04-06 05:03:00,35.0,26.0,30.00,East,99,5.0,-999.0,70,-99.99,,,-99.99,,2013-04-06 10:03:00,
2013-04-06 05:13:00,35.0,26.0,30.00,East,99,5.0,-999.0,70,-99.99,,,-99.99,,2013-04-06 10:13:00,
2013-04-06 05:22:00,35.0,27.0,30.00,East,98,3.0,-999.0,72,-99.99,,,-99.99,,2013-04-06 10:22:00,
2013-04-06 05:33:00,35.0,27.0,30.00,East,86,2.0,-999.0,73,-99.99,,,-99.99,,2013-04-06 10:33:00,
2013-04-06 05:43:00,35.0,27.0,30.00,East,86,2.0,-999.0,73,-99.99,,,-99.99,,2013-04-06 10:43:00,
2013-04-06 05:53:00,35.0,27.0,29.99,East,88,4.0,-999.0,73,-99.99,,,-99.99,,2013-04-06 10:53:00,
2013-04-06 06:02:00,35.0,27.0,29.99,East,87,4.0,-999.0,73,-99.99,,,-99.99,,2013-04-06 11:02:00,
2013-04-06 06:12:00,35.0,27.0,29.99,East,87,4.0,-999.0,73,-99.99,,,-99.99,,2013-04-06 11:12:00,
2013-04-06 06:23:00,35.0,27.0,29.98,East,88,2.0,-999.0,72,-99.99,,,-99.99,,2013-04-06 11:23:00,
2013-04-06 06:32:00,35.0,27.0,29.98,East,86,2.0,-999.0,72,-99.99,,,-99.99,,2013-04-06 11:32:00,
2013-04-06 06:42:00,35.0,27.0,29.98,East,86,2.0,-999.0,72,-99.99,,,-99.99,,2013-04-06 11:42:00,
2013-04-06 06:53:00,36.0,28.0,29.98,East,94,2.0,-999.0,72,-99.99,,,-99.99,,2013-04-06 11:53:00,
2013-04-06 07:02:00,36.0,28.0,29.97,East,91,2.0,-999.0,72,-99.99,,,-99.99,,2013-04-06 12:02:00,
2013-04-06 07:12:00,36.0,28.0,29.97,East,91,2.0,-999.0,72,-99.99,,,-99.99,,2013-04-06 12:12:00,
2013-04-06 07:22:00,36.0,28.0,29.96,East,83,3.0,-999.0,73,-99.99,,,-99.99,,2013-04-06 12:22:00,
2013-04-06 07:32:00,36.0,28.0,29.96,East,87,3.0,-999.0,72,-99.99,,,-99.99,,2013-04-06 12:32:00,
2013-04-06 07:43:00,36.0,28.0,29.96,East,87,3.0,-999.0,72,-99.99,,,-99.99,,2013-04-06 12:43:00,
2013-04-06 07:52:00,37.0,28.0,29.96,East,84,1.0,-999.0,71,-99.99,,,-99.99,,2013-04-06 12:52:00,
2013-04-06 08:02:00,38.0,29.0,29.95,East,88,2.0,-999.0,71,-99.99,,,-99.99,,2013-04-06 13:02:00,
2013-04-06 08:12:00,38.0,29.0,29.95,East,88,2.0,-999.0,71,-99.99,,,-99.99,,2013-04-06 13:12:00,
2013-04-06 08:23:00,38.0,29.0,29.95,ESE,117,2.0,-999.0,69,-99.99,,,-99.99,,2013-04-06 13:23:00,
2013-04-06 08:32:00,39.0,29.0,29.93,East,82,1.0,-999.0,68,-99.99,,,-99.99,,2013-04-06 13:32:00,
2013-04-06 08:43:00,39.0,29.0,29.93,East,82,1.0,-999.0,68,-99.99,,,-99.99,,2013-04-06 13:43:00,
2013-04-06 08:53:00,40.0,30.0,29.93,ESE,113,2.0,-999.0,67,-99.99,,,-99.99,,2013-04-06 13:53:00,
2013-04-06 09:03:00,41.0,31.0,29.92,East,94,1.0,-999.0,67,-99.99,,,-99.99,,2013-04-06 14:03:00,
2013-04-06 09:12:00,41.0,31.0,29.92,East,94,1.0,-999.0,67,-99.99,,,-99.99,,2013-04-06 14:12:00,
2013-04-06 09:22:00,42.0,31.0,29.90,ESE,103,2.0,-999.0,66,-99.99,,,-99.99,,2013-04-06 14:22:00,
2013-04-06 09:32:00,43.0,32.0,29.89,SE,136,2.0,-999.0,64,-99.99,,,-99.99,,2013-04-06 14:32:00,
2013-04-06 09:42:00,43.0,32.0,29.89,SE,136,2.0,-999.0,64,-99.99,,,-99.99,,2013-04-06 14:42:00,
2013-04-06 09:53:00,45.0,33.0,29.87,SE,135,3.0,-999.0,63,-99.99,,,-99.99,,2013-04-06 14:53:00,
2013-04-06 10:02:00,47.0,35.0,29.86,ESE,109,3.0,-999.0,62,-99.99,,,-99.99,,2013-04-06 15:02:00,
2013-04-06 10:12:00,47.0,35.0,29.86,ESE,109,3.0,-999.0,62,-99.99,,,-99.99,,2013-04-06 15:12:00,
2013-04-06 10:22:00,50.0,36.0,29.85,SE,126,2.0,-999.0,59,-99.99,,,-99.99,,2013-04-06 15:22:00,
2013-04-06 10:33:00,54.0,37.0,29.85,SSE,153,4.0,-999.0,53,-99.99,,,-99.99,,2013-04-06 15:33:00,
2013-04-06 10:43:00,54.0,37.0,29.85,SSE,153,4.0,-999.0,53,-99.99,,,-99.99,,2013-04-06 15:43:00,
2013-04-06 10:53:00,56.0,38.0,29.85,SSE,153,5.0,-999.0,50,-99.99,,,-99.99,,2013-04-06 15:53:00,
2013-04-06 11:05:00,59.0,39.0,29.84,SE,146,7.0,-999.0,47,-99.99,,,-99.99,,2013-04-06 16:05:00,
2013-04-06 11:17:00,59.0,39.0,29.84,SE,146,7.0,-999.0,47,-99.99,,,-99.99,,2013-04-06 16:17:00,
2013-04-06 11:23:00,59.0,37.0,29.82,SE,130,9.0,-999.0,44,-99.99,,,-99.99,,2013-04-06 16:23:00,
2013-04-06 11:32:00,60.0,39.0,29.80,SE,136,7.0,-999.0,45,-99.99,,,-99.99,,2013-04-06 16:32:00,
2013-04-06 11:42:00,60.0,39.0,29.80,SE,136,7.0,-999.0,45,-99.99,,,-99.99,,2013-04-06 16:42:00,
2013-04-06 11:53:00,60.0,38.0,29.79,SE,146,8.0,-999.0,44,-99.99,,,-99.99,,2013-04-06 16:53:00,
2013-04-06 12:02:00,62.0,39.0,29.78,South,182,8.0,-999.0,43,-99.99,,,-99.99,,2013-04-06 17:02:00,
2013-04-06 12:12:00,62.0,39.0,29.78,South,182,8.0,-999.0,43,-99.99,,,-99.99,,2013-04-06 17:12:00,
2013-04-06 12:22:00,62.0,40.0,29.77,SSE,148,8.0,-999.0,44,-99.99,,,-99.99,,2013-04-06 17:22:00,
2013-04-06 12:32:00,63.0,40.0,29.76,SSE,155,10.0,-999.0,43,-99.99,,,-99.99,,2013-04-06 17:32:00,
2013-04-06 12:42:00,63.0,40.0,29.76,SSE,155,10.0,-999.0,43,-99.99,,,-99.99,,2013-04-06 17:42:00,
2013-04-06 12:52:00,63.0,39.0,29.74,SSW,207,9.0,-999.0,41,-99.99,,,-99.99,,2013-04-06 17:52:00,
2013-04-06 13:03:00,64.0,39.0,29.73,South,181,11.0,-999.0,40,-99.99,,,-99.99,,2013-04-06 18:03:00,
2013-04-06 13:12:00,64.0,39.0,29.73,South,181,11.0,-999.0,40,-99.99,,,-99.99,,2013-04-06 18:12:00,
2013-04-06 13:23:00,66.0,40.0,29.72,SSE,151,10.0,-999.0,38,-99.99,,,-99.99,,2013-04-06 18:23:00,
2013-04-06 13:32:00,66.0,38.0,29.71,SE,140,11.0,-999.0,36,-99.99,,,-99.99,,2013-04-06 18:32:00,
2013-04-06 13:42:00,66.0,38.0,29.71,SE,140,11.0,-999.0,36,-99.99,,,-99.99,,2013-04-06 18:42:00,
2013-04-06 13:52:00,67.0,40.0,29.70,South,188,9.0,-999.0,37,-99.99,,,-99.99,,2013-04-06 18:52:00,
2013-04-06 14:02:00,67.0,39.0,29.70,SSW,196,9.0,-999.0,36,-99.99,,,-99.99,,2013-04-06 19:02:00,
2013-04-06 14:12:00,67.0,39.0,29.70,SSW,196,9.0,-999.0,36,-99.99,,,-99.99,,2013-04-06 19:12:00,
2013-04-06 14:22:00,67.0,38.0,29.70,South,175,9.0,-999.0,35,-99.99,,,-99.99,,2013-04-06 19:22:00,
2013-04-06 14:32:00,67.0,39.0,29.70,South,177,7.0,-999.0,36,-99.99,,,-99.99,,2013-04-06 19:32:00,
2013-04-06 14:42:00,67.0,39.0,29.70,South,177,7.0,-999.0,36,-99.99,,,-99.99,,2013-04-06 19:42:00,
2013-04-06 14:54:00,66.0,38.0,29.68,South,172,8.0,-999.0,36,-99.99,,,-99.99,,2013-04-06 19:54:00,
2013-04-06 15:02:00,66.0,39.0,29.67,SSE,159,7.0,-999.0,37,-99.99,,,-99.99,,2013-04-06 20:02:00,
2013-04-06 15:12:00,66.0,39.0,29.67,SSE,159,7.0,-999.0,37,-99.99,,,-99.99,,2013-04-06 20:12:00,
2013-04-06 15:22:00,66.0,38.0,29.67,SSW,204,7.0,-999.0,36,-99.99,,,-99.99,,2013-04-06 20:22:00,
2013-04-06 15:32:00,66.0,40.0,29.65,South,186,6.0,-999.0,38,-99.99,,,-99.99,,2013-04-06 20:32:00,
2013-04-06 15:42:00,66.0,40.0,29.65,South,186,6.0,-999.0,38,-99.99,,,-99.99,,2013-04-06 20:42:00,
2013-04-06 15:52:00,66.0,40.0,29.65,South,186,6.0,-999.0,38,-99.99,,,-99.99,,2013-04-06 20:52:00,
2013-04-06 16:02:00,67.0,41.0,29.63,South,169,7.0,-999.0,38,-99.99,,,-99.99,,2013-04-06 21:02:00,
2013-04-06 16:13:00,66.0,40.0,29.64,SSW,209,9.0,-999.0,38,-99.99,,,-99.99,,2013-04-06 21:13:00,
2013-04-06 16:22:00,66.0,40.0,29.64,SSW,209,9.0,-999.0,38,-99.99,,,-99.99,,2013-04-06 21:22:00,
2013-04-06 16:33:00,66.0,40.0,29.61,SE,139,8.0,-999.0,38,-99.99,,,-99.99,,2013-04-06 21:33:00,
2013-04-06 16:43:00,66.0,40.0,29.61,SE,139,8.0,-999.0,38,-99.99,,,-99.99,,2013-04-06 21:43:00,
2013-04-06 16:53:00,66.0,40.0,29.62,SSE,167,6.0,-999.0,39,-99.99,,,-99.99,,2013-04-06 21:53:00,
2013-04-06 17:03:00,67.0,41.0,29.63,SE,140,5.0,-999.0,38,-99.99,,,-99.99,,2013-04-06 22:03:00,
2013-04-06 17:13:00,67.0,41.0,29.63,SE,140,5.0,-999.0,38,-99.99,,,-99.99,,2013-04-06 22:13:00,
2013-04-06 17:23:00,69.0,43.0,29.63,South,169,5.0,-999.0,39,-99.99,,,-99.99,,2013-04-06 22:23:00,
2013-04-06 17:34:00,69.0,42.0,29.61,SE,143,5.0,-999.0,37,-99.99,,,-99.99,,2013-04-06 22:34:00,
2013-04-06 17:43:00,69.0,42.0,29.61,SE,143,5.0,-999.0,37,-99.99,,,-99.99,,2013-04-06 22:43:00,
2013-04-06 17:53:00,68.0,39.0,29.62,South,173,6.0,-999.0,35,-99.99,,,-99.99,,2013-04-06 22:53:00,
2013-04-06 18:03:00,68.0,39.0,29.62,SSW,194,7.0,-999.0,34,-99.99,,,-99.99,,2013-04-06 23:03:00,
2013-04-06 18:23:00,68.0,39.0,29.62,SSW,209,7.0,-999.0,35,-99.99,,,-99.99,,2013-04-06 23:23:00,
2013-04-06 18:34:00,67.0,40.0,29.62,SSE,166,5.0,-999.0,37,-99.99,,,-99.99,,2013-04-06 23:34:00,
2013-04-06 18:42:00,67.0,40.0,29.62,SSE,166,5.0,-999.0,37,-99.99,,,-99.99,,2013-04-06 23:42:00,
2013-04-06 18:53:00,66.0,39.0,29.63,SSW,208,6.0,-999.0,37,-99.99,,,-99.99,,2013-04-06 23:53:00,
2013-04-06 19:02:00,64.0,43.0,29.63,SSW,202,5.0,-999.0,46,-99.99,,,-99.99,,2013-04-07 00:02:00,
2013-04-06 19:12:00,64.0,43.0,29.63,SSW,202,5.0,-999.0,46,-99.99,,,-99.99,,2013-04-07 00:12:00,
2013-04-06 19:22:00,63.0,44.0,29.64,SSW,207,5.0,-999.0,49,-99.99,,,-99.99,,2013-04-07 00:22:00,
2013-04-06 19:32:00,62.0,45.0,29.63,SSW,198,5.0,-999.0,54,-99.99,,,-99.99,,2013-04-07 00:32:00,
2013-04-06 19:42:00,62.0,45.0,29.63,SSW,198,5.0,-999.0,54,-99.99,,,-99.99,,2013-04-07 00:42:00,
2013-04-06 19:53:00,62.0,47.0,29.62,SSW,204,3.0,-999.0,58,-99.99,,,-99.99,,2013-04-07 00:53:00,
2013-04-06 20:02:00,61.0,48.0,29.62,SSE,155,2.0,-999.0,63,-99.99,,,-99.99,,2013-04-07 01:02:00,
2013-04-06 20:12:00,61.0,48.0,29.62,SSE,155,2.0,-999.0,63,-99.99,,,-99.99,,2013-04-07 01:12:00,
2013-04-06 20:23:00,58.0,47.0,29.61,ESE,107,0.0,-999.0,67,-99.99,,,-99.99,,2013-04-07 01:23:00,
2013-04-06 20:32:00,57.0,48.0,29.61,SE,144,0.0,-999.0,71,-99.99,,,-99.99,,2013-04-07 01:32:00,
2013-04-06 20:42:00,57.0,48.0,29.61,SE,144,0.0,-999.0,71,-99.99,,,-99.99,,2013-04-07 01:42:00,
2013-04-06 20:53:00,57.0,47.0,29.61,SE,145,0.0,-999.0,70,-99.99,,,-99.99,,2013-04-07 01:53:00,
2013-04-06 21:03:00,57.0,46.0,29.61,South,169,1.0,-999.0,67,-99.99,,,-99.99,,2013-04-07 02:03:00,
2013-04-06 21:12:00,57.0,46.0,29.61,South,169,1.0,-999.0,67,-99.99,,,-99.99,,2013-04-07 02:12:00,
2013-04-06 21:23:00,58.0,46.0,29.61,SSE,154,2.0,-999.0,64,-99.99,,,-99.99,,2013-04-07 02:23:00,
2013-04-06 21:32:00,58.0,45.0,29.60,SSE,154,2.0,-999.0,63,-99.99,,,-99.99,,2013-04-07 02:32:00,
2013-04-06 21:42:00,58.0,45.0,29.60,SSE,154,2.0,-999.0,63,-99.99,,,-99.99,,2013-04-07 02:42:00,
2013-04-06 21:52:00,58.0,46.0,29.59,South,177,2.0,-999.0,65,-99.99,,,-99.99,,2013-04-07 02:52:00,
2013-04-06 22:02:00,58.0,46.0,29.60,South,171,2.0,-999.0,65,-99.99,,,-99.99,,2013-04-07 03:02:00,
2013-04-06 22:12:00,58.0,46.0,29.60,South,171,2.0,-999.0,65,-99.99,,,-99.99,,2013-04-07 03:12:00,
2013-04-06 22:22:00,57.0,48.0,29.65,SW,235,9.0,-999.0,72,-99.99,,,-99.99,,2013-04-07 03:22:00,
2013-04-06 22:34:00,56.0,49.0,29.63,SSW,201,2.0,-999.0,78,-99.99,,,-99.99,,2013-04-07 03:34:00,
2013-04-06 22:43:00,56.0,49.0,29.63,SSW,201,2.0,-999.0,78,-99.99,,,-99.99,,2013-04-07 03:43:00,
2013-04-06 22:54:00,56.0,50.0,29.63,SSW,213,4.0,-999.0,79,-99.99,,,-99.99,,2013-04-07 03:54:00,
2013-04-06 23:03:00,57.0,50.0,29.64,WSW,257,10.0,-999.0,78,-99.99,,,-99.99,,2013-04-07 04:03:00,
2013-04-06 23:14:00,57.0,50.0,29.64,WSW,257,10.0,-999.0,78,-99.99,,,-99.99,,2013-04-07 04:14:00,
2013-04-06 23:23:00,57.0,50.0,29.64,WSW,240,12.0,-999.0,78,-99.99,,,-99.99,,2013-04-07 04:23:00,
2013-04-06 23:32:00,56.0,50.0,29.65,West,266,12.0,-999.0,80,-99.99,,,-99.99,,2013-04-07 04:32:00,
2013-04-06 23:43:00,56.0,50.0,29.65,West,266,12.0,-999.0,80,-99.99,,,-99.99,,2013-04-07 04:43:00,
2013-04-06 23:53:00,54.0,48.0,29.66,West,261,11.0,-999.0,81,-99.99,,,-99.99,,2013-04-07 04:53:00,